AirNav   ATP
 
 1158 users online  

28U Owyhee Reservoir State Airport
Owyhee, Oregon, USA


FAA INFORMATION EFFECTIVE 07 DECEMBER 2017

Location

FAA Identifier: 28U
Lat/Long: 43-25-29.4000N / 117-20-44.4000W
43-25.490000N / 117-20.740000W
43.4248333 / -117.3456667
(estimated)
Elevation: 2680 ft. / 817 m (estimated)
Variation: 17E (1985)
From city: 25 miles SW of OWYHEE, OR
Time zone: UTC -8 (UTC -7 during Daylight Saving Time)
Zip code: 97901

Airport Operations

Airport use: Open to the public
Activation date: 10/1958
Control tower: no
ARTCC: SALT LAKE CITY CENTER
FSS: MC MINNVILLE FLIGHT SERVICE STATION
NOTAMs facility: MMV (NOTAM-D service available)
Attendance: UNATNDD
Pattern altitude: 3680 ft. MSL
Wind indicator: yes
Segmented circle: no

Airport Communications

CTAF: 122.9

Nearby radio navigation aids

NDB name  Hdg/Dist  Freq  Var  ID
ONTARIO189/38.630513EONO --- -. ---

Airport Services

Parking: tiedowns
Airframe service: NONE
Powerplant service: NONE
Bottled oxygen: NONE
Bulk oxygen: NONE

Runway Information

Runway 13/31

Dimensions: 1840 x 30 ft. / 561 x 9 m
Surface: dirt, in fair condition
IRREGULAR MAINTENANCE. RUNWAY SURFACE FREQUENTLY ROUGH AND RUTTED
RUNWAY 13  RUNWAY 31
Latitude: 43-25.610248N43-25.370388N
Longitude: 117-20.866427W117-20.612518W
Elevation: 2678.0 ft.2678.0 ft.
Traffic pattern: leftleft
Runway heading: 125 magnetic, 142 true305 magnetic, 322 true

Airport Ownership and Management from official FAA records

Ownership: Publicly-owned
Owner: OREGON DEPT. OF AVIATION
3040 25TH ST, SE
SALEM, OR 97302-1125
Phone 503-378-4880
Manager: STATE AIRPORTS MANAGER
3040 25TH ST, SE
SALEM, OR 97302-1125
Phone 503-378-4880

Airport Operational Statistics

Aircraft operations: avg 46/month *
100% transient general aviation
* for 12-month period ending 24 September 2017

Additional Remarks

OWNER ADVISES CONTACT WITH STATE DEPT OF AVIATION 503-378-4880 PRIOR TO USE.
REMOTE AIRPORT; NO GROUND ACCESS.
AIRPORT IN CANYON; SURROUNDED BY HIGH TERRAIN.
4 FT BRUSH GROWTH WITHIN 20 FT OF RWY EDGE.

Instrument Procedures

There are no published instrument procedures at 28U.

Some nearby airports with instrument procedures:

KEUL - Caldwell Industrial Airport (34 nm NE)
KMAN - Nampa Municipal Airport (37 nm E)
KONO - Ontario Municipal Airport (38 nm N)
KBOI - Boise Air Terminal/Gowen Field (50 nm E)
S87 - Weiser Municipal Airport (50 nm N)
 
Loc | Ops | Rwys | IFR | FBO | Links
Com | Nav | Svcs | Stats | Notes


 
Area around 28U (Owyhee Reservoir State Airport)
 
Road maps at: MapQuest Bing Google
 
Aerial photo
WARNING: Photo may not be current or correct
Aerial photo of 28U (Owyhee Reservoir State Airport)
Photo by Mark Andrews
Photo taken 05-Jul-2012
looking northwest.

Do you have a better or more recent aerial photo of Owyhee Reservoir State Airport that you would like to share? If so, please send us your photo.

 
Sectional chart

 
Airport distance calculator
Flying to Owyhee Reservoir State Airport? Find the distance to fly.

From to 28U

Sunrise and sunset
Times for 14-Dec-2017
 Local
(UTC-8)
 Zulu
(UTC)
Morning civil twilight06:4314:43
Sunrise07:1615:16
Sunset16:1300:13
Evening civil twilight16:4500:45

Current date and time
Zulu (UTC)  14-Dec-2017 22:27:41
Local (UTC-8)  14-Dec-2017 14:27:41
 
METAR
KEUL 
34nm E 
142156Z AUTO 09004KT 10SM OVC013 M02/M05 A3055 RMK AO2 SLPNO T10221050 FZRANO
KMAN 
37nm E 
142215Z AUTO 00000KT 10SM OVC012 M02/M02 A3053 RMK A01
KONO 
38nm N 
142153Z AUTO 00000KT 8SM OVC011 M02/M04 A3057 RMK AO2 SLP383 T10171039
KBOI 
49nm E 
142153Z 00000KT 10SM OVC010 M03/M06 A3052 RMK AO2 SLP364 T10281056
TAF
KEUL 
34nm E 
141740Z 1418/1518 VRB03KT 6SM BR OVC008 FM141900 VRB03KT 6SM BR OVC012 FM150400 VRB04KT 6SM BR OVC007 AMD NOT SKED
NOTAMs
Click for the latest NOTAMs
NOTAMs are issued by the DoD/FAA and will open in a separate window not controlled by AirNav.

 

 
 

Would you like to see your business listed on this page?

 If your business provides an interesting product or service to pilots, flight crews, aircraft, or users of the Owyhee Reservoir State Airport, you should consider listing it here.  To start the listing process, click on the button below
 
Add a business
 

Other Pages about Owyhee Reservoir State Airport

www.oregon.gov/...
 
Update a link
 
Copyright © AirNav, LLC. All rights reserved. Privacy Policy  Contact